Location: Twentynine Palms Airport
(34.1316°N, 115.9458°W)
Time: 06:41:11
(UTC-07:00)

Amateur Radio Satellites - All Passes

Search period start: 25 July 2014 06:11
Search period end: 26 July 2014 06:11
Location: Twentynine Palms Airport, 34.1316°N, 115.9458°W

Satellite Date Start Highest point End Downlink Frequencies (MHz)
Time Altitude Azimuth
Uosat F 25 Jul 06:25:01 06:27:36 14° 296° (WNW) 06:30:10 435.120 FM
MaSat-1 25 Jul 06:31:44 06:34:01 13° 52° (NE) 06:36:16 437.345 MHz
STRAND 1 25 Jul 06:38:21 06:43:29 73° 75° (ENE) 06:48:37 ?
Hamsat 25 Jul 06:42:32 06:46:51 83° 102° (ESE) 06:51:10 145.90 MHz
SO-67 25 Jul 06:54:37 06:55:50 11° 93° (E) 06:57:02 435.3500 MHz FM
KITSAT 1 25 Jul 07:00:33 07:08:40 89° 296° (WNW) 07:16:49 435.175 FM
ISS 25 Jul 07:10:07 07:12:41 20° 33° (NNE) 07:15:16 145.800 FM
Lituanica SAT-1 25 Jul 07:18:17 07:19:49 18° 229° (SW) 07:21:21 437.275 MHz beacon
Saudisat 1A 25 Jul 07:30:49 07:34:09 21° 110° (ESE) 07:37:29 436.775 MHz
PANSAT 25 Jul 07:40:25 07:43:54 33° 174° (S) 07:47:23 not established
JAS-2 25 Jul 07:45:42 07:51:20 42° 290° (WNW) 07:56:26 435.800 - 435.900 CW/SSB, 435.910 FM
AO-7 25 Jul 07:45:53 07:48:07 11° 310° (NW) 07:50:20 29.400 - 29.500 MHz
MaSat-1 25 Jul 08:06:44 08:12:05 84° 249° (WSW) 08:17:04 437.345 MHz
STRAND 1 25 Jul 08:22:43 08:23:06 10° 269° (W) 08:23:30 ?
SO-67 25 Jul 08:25:54 08:28:57 29° 286° (WNW) 08:31:58 435.3500 MHz FM
ISS 25 Jul 08:46:22 08:49:29 36° 228° (SW) 08:52:35 145.800 FM
KITSAT 1 25 Jul 08:59:35 09:05:08 20° 316° (NW) 09:10:43 435.175 FM
HO-68 25 Jul 09:07:38 09:14:06 36° 99° (E) 09:20:31 435.675 MHz FM
Saudisat 1A 25 Jul 09:09:34 09:13:31 32° 305° (NW) 09:17:29 436.775 MHz
PANSAT 25 Jul 09:20:18 09:23:45 31° 187° (S) 09:27:11 not established
Oscar 11 25 Jul 09:29:46 09:32:22 16° 94° (E) 09:34:57 145.825 FM, Beacon 2401.500 USB
UKube-1 25 Jul 10:14:45 10:19:05 70° 285° (WNW) 10:23:23 145.840 MHz, 145.915 MHz
Sapphire 25 Jul 10:15:50 10:20:18 26° 55° (NE) 10:24:45 437.095 MHz 1200 baud AX-25 AFSK
PCSat 25 Jul 10:49:07 10:54:26 53° 61° (ENE) 10:59:42 145.825 MHz
HO-68 25 Jul 10:55:17 11:01:41 37° 294° (WNW) 11:08:05 435.675 MHz FM
PANSAT 25 Jul 11:01:03 11:03:28 16° 199° (SSW) 11:05:53 not established
Oscar 11 25 Jul 11:04:40 11:08:38 36° 287° (WNW) 11:12:35 145.825 FM, Beacon 2401.500 USB
FUNcube-1 25 Jul 11:14:34 11:18:44 83° 283° (WNW) 11:22:56 145.950 - 145.970 MHz USB
Sapphire 25 Jul 11:58:48 12:03:46 38° 251° (WSW) 12:08:43 437.095 MHz 1200 baud AX-25 AFSK
Oscar 16 25 Jul 12:06:37 12:07:24 10° 62° (ENE) 12:08:11 437.025 USB, Beacon 2401.1428
RS-15 25 Jul 12:19:05 12:27:13 24° 103° (ESE) 12:35:10 29.354 - 29.394 USB, Beacon 29.352 USB
PCSat 25 Jul 12:34:00 12:37:20 17° 256° (WSW) 12:40:39 145.825 MHz
Uribyol 2 25 Jul 12:39:49 12:40:32 10° 62° (ENE) 12:41:15 436.500 FM
SO-50 25 Jul 13:00:46 13:05:06 57° 116° (ESE) 13:09:32 436.795 FM
Oscar 19 25 Jul 13:13:26 13:18:21 51° 73° (ENE) 13:23:18 437.125 CW, 437.150 USB
JAS-1B 25 Jul 13:34:40 13:42:04 33° 62° (ENE) 13:50:16 435.800 - 435.900 CW/SSB
Oscar 16 25 Jul 13:40:55 13:46:01 80° 257° (WSW) 13:51:10 437.025 USB, Beacon 2401.1428
TMSAT-1 25 Jul 13:53:09 13:56:10 16° 65° (ENE) 13:59:12 436.925 FM
ITAMSAT 1 25 Jul 13:53:41 13:58:48 58° 74° (ENE) 14:03:55 435.822 SSB
AO-Echo 25 Jul 13:59:50 14:05:02 69° 75° (ENE) 14:10:20 ?
AO-27 25 Jul 14:11:43 14:16:57 89° 79° (ENE) 14:22:12 436.795 MHz FM
Gurwin Techsat 1B 25 Jul 14:12:59 14:17:44 34° 70° (ENE) 14:22:29 435.225 FM
Uribyol 2 25 Jul 14:14:03 14:19:15 83° 257° (WSW) 14:24:29 436.500 FM
RS-15 25 Jul 14:27:11 14:38:24 76° 300° (WNW) 14:49:22 29.354 - 29.394 USB, Beacon 29.352 USB
SO-50 25 Jul 14:43:36 14:46:02 14° 313° (NW) 14:48:30 436.795 FM
AO-7 25 Jul 14:52:53 14:59:19 26° 59° (ENE) 15:05:44 29.400 - 29.500 MHz
Oscar 19 25 Jul 14:55:03 14:57:56 15° 267° (W) 15:00:50 437.125 CW, 437.150 USB
KITSAT 1 25 Jul 14:58:54 15:05:17 25° 48° (NE) 15:11:36 435.175 FM
UOSAT-12 25 Jul 15:22:46 15:27:19 70° 300° (WNW) 15:31:59 437.025 FM, 437.400 FM
JAS-1B 25 Jul 15:23:49 15:31:54 56° 261° (W) 15:41:17 435.800 - 435.900 CW/SSB
TMSAT-1 25 Jul 15:30:22 15:35:34 57° 259° (W) 15:40:47 436.925 FM
ITAMSAT 1 25 Jul 15:36:01 15:38:35 14° 267° (W) 15:41:10 435.822 SSB
AO-Echo 25 Jul 15:42:22 15:44:13 12° 269° (W) 15:46:04 ?
Gurwin Techsat 1B 25 Jul 15:53:26 15:57:41 24° 264° (W) 16:01:57 435.225 FM
Uosat F 25 Jul 15:53:55 15:58:48 53° 73° (ENE) 16:03:43 435.120 FM
OPAL 25 Jul 16:35:46 16:40:47 60° 103° (ESE) 16:45:50 ?
AO-7 25 Jul 16:43:07 16:51:24 66° 256° (WSW) 16:59:43 29.400 - 29.500 MHz
RS-15 25 Jul 16:45:04 16:52:50 21° 325° (NW) 17:00:36 29.354 - 29.394 USB, Beacon 29.352 USB
KITSAT 1 25 Jul 16:53:18 17:01:20 71° 247° (WSW) 17:09:19 435.175 FM
Hamsat 25 Jul 17:32:32 17:36:19 34° 73° (ENE) 17:40:07 145.90 MHz
Uosat F 25 Jul 17:35:12 17:37:51 14° 267° (W) 17:40:30 435.120 FM
Saudisat 1A 25 Jul 17:39:14 17:43:38 69° 60° (ENE) 17:47:59 436.775 MHz
JAS-2 25 Jul 17:50:25 17:58:03 57° 72° (ENE) 18:05:24 435.800 - 435.900 CW/SSB, 435.910 FM
OPAL 25 Jul 18:16:31 18:19:08 14° 297° (WNW) 18:21:46 ?
STRAND 1 25 Jul 18:53:14 18:57:49 33° 98° (E) 19:02:22 ?
SO-67 25 Jul 18:55:02 18:58:19 43° 75° (ENE) 19:01:38 435.3500 MHz FM
Hamsat 25 Jul 19:10:01 19:12:22 15° 267° (W) 19:14:44 145.90 MHz
HO-68 25 Jul 19:34:03 19:38:46 19° 60° (ENE) 19:43:28 435.675 MHz FM
JAS-2 25 Jul 19:36:52 19:43:11 27° 266° (W) 19:49:25 435.800 - 435.900 CW/SSB, 435.910 FM
STRAND 1 25 Jul 20:32:46 20:36:47 24° 292° (WNW) 20:40:48 ?
UKube-1 25 Jul 21:06:23 21:10:41 62° 75° (ENE) 21:15:01 145.840 MHz, 145.915 MHz
HO-68 25 Jul 21:18:33 21:25:42 73° 256° (WSW) 21:32:53 435.675 MHz FM
RS-15 25 Jul 21:21:48 21:30:20 25° 39° (NE) 21:38:59 29.354 - 29.394 USB, Beacon 29.352 USB
SO-50 25 Jul 21:36:23 21:40:03 22° 51° (NE) 21:43:43 436.795 FM
MaSat-1 25 Jul 21:54:39 21:58:23 87° 293° (WNW) 22:02:51 437.345 MHz
Oscar 11 25 Jul 21:55:29 21:59:47 76° 258° (WSW) 22:04:06 145.825 FM, Beacon 2401.500 USB
FUNcube-1 25 Jul 22:07:15 22:11:29 48° 75° (ENE) 22:15:37 145.950 - 145.970 MHz USB
Lituanica SAT-1 25 Jul 23:14:09 23:15:52 22° 322° (NW) 23:17:35 437.275 MHz beacon
SO-50 25 Jul 23:16:16 23:20:43 40° 246° (WSW) 23:25:13 436.795 FM
RS-15 25 Jul 23:33:11 23:44:20 87° 62° (ENE) 23:55:56 29.354 - 29.394 USB, Beacon 29.352 USB
FUNcube-1 25 Jul 23:46:34 23:48:04 12° 267° (W) 23:49:33 145.950 - 145.970 MHz USB
PCSat 25 Jul 23:48:21 23:49:33 11° 102° (ESE) 23:50:46 145.825 MHz
ISS 25 Jul 23:49:19 23:52:28 41° 132° (SE) 23:55:38 145.800 FM
UOSAT-12 25 Jul 23:56:08 00:00:30 36° 55° (NE) 00:04:47 437.025 FM, 437.400 FM
Sapphire 26 Jul 00:53:21 00:58:30 48° 111° (ESE) 01:03:41 437.095 MHz 1200 baud AX-25 AFSK
PCSat 26 Jul 01:26:50 01:32:13 77° 296° (WNW) 01:37:40 145.825 MHz
ISS 26 Jul 01:26:52 01:29:18 19° 328° (NNW) 01:31:46 145.800 FM
Oscar 19 26 Jul 01:29:21 01:33:32 25° 96° (E) 01:37:42 437.125 CW, 437.150 USB
UOSAT-12 26 Jul 01:36:53 01:40:23 21° 250° (WSW) 01:43:50 437.025 FM, 437.400 FM
RS-15 26 Jul 01:48:09 01:55:18 20° 259° (W) 02:02:41 29.354 - 29.394 USB, Beacon 29.352 USB
Oscar 16 26 Jul 01:56:30 02:01:30 49° 100° (E) 02:06:29 437.025 USB, Beacon 2401.1428
ITAMSAT 1 26 Jul 02:10:57 02:15:21 28° 97° (E) 02:19:43 435.822 SSB
AO-Echo 26 Jul 02:11:49 02:16:13 29° 96° (E) 02:20:28 ?
AO-27 26 Jul 02:28:51 02:33:48 44° 99° (E) 02:38:42 436.795 MHz FM
Uribyol 2 26 Jul 02:30:48 02:35:47 48° 100° (E) 02:40:44 436.500 FM
Gurwin Techsat 1B 26 Jul 02:33:45 02:37:23 19° 94° (E) 02:40:59 435.225 FM
Sapphire 26 Jul 02:38:06 02:42:08 21° 307° (NW) 02:46:12 437.095 MHz 1200 baud AX-25 AFSK
Oscar 19 26 Jul 03:08:17 03:12:51 33° 290° (WNW) 03:17:24 437.125 CW, 437.150 USB
JAS-1B 26 Jul 03:14:41 03:24:03 68° 101° (E) 03:31:59 435.800 - 435.900 CW/SSB
PCSat 26 Jul 03:15:45 03:16:31 10° 314° (NW) 03:17:17 145.825 MHz
Oscar 16 26 Jul 03:37:11 03:40:24 17° 294° (WNW) 03:43:38 437.025 USB, Beacon 2401.1428
OPAL 26 Jul 03:47:15 03:52:10 71° 73° (ENE) 03:57:06 ?
TMSAT-1 26 Jul 03:49:57 03:55:15 79° 103° (ESE) 04:00:32 436.925 FM
ITAMSAT 1 26 Jul 03:50:20 03:54:44 29° 291° (WNW) 03:59:07 435.822 SSB
AO-Echo 26 Jul 03:50:40 03:54:49 26° 292° (WNW) 03:58:51 ?
Uosat F 26 Jul 04:06:14 04:10:05 22° 96° (E) 04:13:54 435.120 FM
AO-27 26 Jul 04:09:22 04:12:56 19° 294° (WNW) 04:16:30 436.795 MHz FM
Uribyol 2 26 Jul 04:11:31 04:14:50 17° 294° (WNW) 04:18:08 436.500 FM
Gurwin Techsat 1B 26 Jul 04:12:28 04:17:30 45° 288° (WNW) 04:22:30 435.225 FM
AO-7 26 Jul 04:49:00 04:57:09 56° 103° (ESE) 05:05:13 29.400 - 29.500 MHz
JAS-1B 26 Jul 05:06:15 05:13:32 27° 301° (WNW) 05:20:09 435.800 - 435.900 CW/SSB
KITSAT 1 26 Jul 05:23:51 05:30:03 25° 104° (ESE) 05:36:16 435.175 FM
Lituanica SAT-1 26 Jul 05:28:44 05:30:00 15° 36° (NE) 05:31:16 437.275 MHz beacon
TMSAT-1 26 Jul 05:33:00 05:34:26 11° 298° (WNW) 05:35:53 436.925 FM
PANSAT 26 Jul 05:36:28 05:39:13 19° 163° (SSE) 05:41:58 not established
Uosat F 26 Jul 05:44:23 05:48:53 34° 290° (WNW) 05:53:21 435.120 FM
